This is the latest recevied weather packets stored in our database for station/object N1HRK. If no packets are shown the sender has not sent any weather packets the latest 10 day(s).
| Time | Temp. | Humidity | Pressure | Rain* | Wind** | Luminosity | Snow |
|---|---|---|---|---|---|---|---|
| 1777676523 | 15.56° C | 43% | 1009.3 hPa | 0 mm | - | - | - |
| 1777675924 | 15° C | 43% | 1009.1 hPa | 0 mm | - | - | - |
| 1777675322 | 15.56° C | 43% | 1009 hPa | 0 mm | - | - | - |
| 1777674724 | 15.56° C | 43% | 1009.1 hPa | 0 mm | - | - | - |
| 1777674125 | 15.56° C | 42% | 1009 hPa | 0 mm | - | - | - |
| 1777673524 | 16.11° C | 41% | 1008.9 hPa | 0 mm | - | - | - |
| 1777672924 | 16.11° C | 40% | 1008.9 hPa | 0 mm | - | - | - |
| 1777672324 | 16.67° C | 40% | 1008.8 hPa | 0 mm | - | - | - |
| 1777671754 | 17.22° C | 38% | 1008.8 hPa | 0 mm | - | - | - |
| 1777671723 | 17.78° C | 38% | 1008.7 hPa | 0 mm | - | - | - |
| 1777671123 | 17.78° C | 32% | 1008.6 hPa | 0 mm | - | - | - |
| 1777670524 | 17.78° C | 32% | 1008.5 hPa | 0 mm | - | - | - |
| 1777669924 | 17.78° C | 33% | 1008.6 hPa | 0 mm | - | - | - |
| 1777669324 | 17.22° C | 33% | 1008.5 hPa | 0 mm | - | - | - |
| 1777668723 | 17.22° C | 34% | 1008.4 hPa | 0 mm | - | - | - |
| 1777668124 | 17.22° C | 33% | 1008.5 hPa | 0 mm | - | - | - |
| 1777667553 | 17.22° C | 32% | 1008.5 hPa | 0 mm | - | - | - |
| 1777667523 | 16.67° C | 32% | 1008.5 hPa | 0 mm | - | - | - |
| 1777666923 | 17.22° C | 33% | 1008.6 hPa | 0 mm | - | - | - |
| 1777666323 | 17.22° C | 33% | 1008.6 hPa | 0 mm | - | - | - |
| 1777665752 | 17.22° C | 32% | 1008.7 hPa | 0 mm | - | - | - |
| 1777665722 | 17.22° C | 32% | 1008.7 hPa | 0 mm | - | - | - |
| 1777665124 | 17.22° C | 34% | 1008.6 hPa | 0 mm | - | - | - |
| 1777664524 | 16.67° C | 35% | 1008.6 hPa | 0 mm | - | - | - |
| 1777663954 | 16.67° C | 34% | 1008.8 hPa | 0 mm | - | - | - |
* Rain latest hour (hover to see other rain measurements)
** Current wind speed in m/s (hover to see current wind gust speed)